Date,TemperatureHighF,TemperatureAvgF,TemperatureLowF,DewpointHighF,DewpointAvgF,DewpointLowF,HumidityHigh,HumidityAvg,HumidityLow,PressureMaxIn,PressureMinIn,WindSpeedMaxMPH,WindSpeedAvgMPH,GustSpeedMaxMPH,PrecipitationSumIn
2013-1-1,48.4,44.4,40.9,40.0,33.0,23.0,75,65,43,30.31,30.21,9,0,0,0.00
2013-1-2,57.2,51.7,45.4,35.0,23.7,17.0,46,34,27,30.28,30.16,5,0,0,0.00
2013-1-3,59.9,56.3,52.4,39.0,22.1,14.0,50,28,18,30.25,30.16,1,0,0,0.00
2013-1-4,59.6,52.7,45.0,48.0,29.9,17.0,81,45,22,30.29,30.21,3,0,0,0.00
2013-1-5,48.6,43.9,40.3,46.0,41.2,33.0,96,90,62,30.32,30.17,9,1,0,0.73
2013-1-6,40.6,39.3,38.2,40.0,38.4,37.0,96,96,96,30.19,30.14,3,0,0,0.52
2013-1-9,56.9,45.1,38.0,48.0,37.0,-99.9,93,81,64,30.12,0.00,6,-34,0,0.03
2013-1-10,43.5,38.0,34.4,38.0,31.8,29.0,87,78,70,30.28,30.10,13,1,0,0.17
2013-1-11,45.4,39.8,36.7,38.0,32.1,26.0,88,74,59,30.33,30.20,10,1,0,0.07
2013-1-12,43.9,39.6,37.0,33.0,27.7,19.0,79,63,48,30.31,30.18,9,1,0,0.00
2013-1-13,44.2,39.5,35.0,32.0,21.6,9.0,70,51,29,30.31,30.20,12,1,0,0.00
2013-1-14,43.5,39.5,35.3,34.0,24.8,14.0,70,57,37,30.46,30.27,3,0,0,0.00
2013-1-15,47.4,42.2,38.3,37.0,30.1,20.0,73,63,41,30.54,30.46,2,0,0,0.00
2013-1-16,56.8,50.6,41.6,38.0,28.6,23.0,65,44,30,30.48,30.28,3,0,0,0.00
2013-1-17,71.8,62.4,56.1,46.0,30.4,22.0,47,31,20,30.27,30.15,0,0,0,0.00
2013-1-18,66.5,62.6,59.0,37.0,24.5,14.0,34,24,14,30.21,30.14,1,0,0,0.00
2013-1-19,68.2,62.9,58.8,32.0,21.2,14.0,27,20,15,30.23,30.16,2,0,0,0.00
2013-1-20,69.1,63.3,59.6,30.0,19.2,11.0,25,18,13,30.21,30.12,6,0,0,0.00
2013-1-21,71.3,65.4,61.7,31.0,16.2,8.0,23,15,11,30.18,30.08,10,0,0,0.00
2013-1-22,68.3,62.4,56.9,30.0,19.0,12.0,30,19,14,30.13,30.05,9,1,0,0.00
2013-1-23,66.4,56.1,46.3,45.0,30.6,17.0,86,43,20,30.11,30.01,11,1,0,0.08
2013-1-24,56.2,51.5,45.6,53.0,49.2,42.0,96,92,60,30.22,30.06,7,0,0,0.55
2013-1-25,61.9,57.6,53.1,55.0,52.0,49.0,96,82,73,30.21,30.06,3,0,0,0.00
2013-1-26,57.9,51.6,41.2,52.0,44.8,31.0,84,77,64,30.09,30.00,11,1,0,0.00
2013-1-27,50.0,43.1,39.1,41.0,33.6,30.0,79,70,53,30.22,30.09,11,1,0,0.00
2013-1-28,50.1,43.5,38.1,43.0,35.5,30.0,85,74,62,30.34,30.22,10,1,0,0.00
2013-1-29,58.5,49.2,41.1,44.0,36.2,28.0,78,62,41,30.36,30.28,11,1,0,0.00
2013-1-30,62.2,53.4,45.3,48.0,39.0,35.0,75,59,45,30.40,30.29,3,0,0,0.00
2013-1-31,61.0,57.3,52.9,42.0,36.8,32.0,54,47,41,30.32,30.20,1,0,0,0.00
2013-2-1,65.6,59.1,55.1,44.0,36.7,23.0,60,44,25,30.25,30.17,1,0,0,0.00
2013-2-2,64.3,59.8,56.4,41.0,30.5,21.0,48,34,23,30.30,30.23,1,0,0,0.00
2013-2-3,62.1,56.7,49.2,47.0,33.7,25.0,78,44,30,30.23,30.12,2,0,0,0.00
2013-2-4,64.8,58.3,51.4,44.0,30.3,21.0,54,35,25,30.18,30.09,2,0,0,0.00
2013-2-5,59.1,52.6,46.9,47.0,35.5,25.0,82,56,28,30.13,30.05,10,1,0,0.00
2013-2-6,54.4,48.9,45.2,44.0,30.7,14.0,80,51,26,30.21,30.13,3,0,0,0.00
2013-2-7,45.8,43.5,41.5,35.0,33.8,31.0,77,69,56,30.20,30.17,0,0,0,0.00
2013-2-15,68.8,64.7,62.2,37.0,30.8,-99.9,34,29,26,30.28,0.00,4,-16,0,0.00
2013-2-16,68.1,62.7,57.5,39.0,29.7,24.0,39,29,22,30.24,30.06,2,0,0,0.00
2013-2-17,60.2,54.2,44.4,47.0,34.6,24.0,82,51,29,30.06,29.98,7,0,0,0.00
2013-2-18,47.6,41.2,38.5,41.0,36.8,29.0,92,85,50,30.12,30.02,4,0,0,0.00
2013-2-19,41.0,37.8,33.5,39.0,33.8,29.0,94,86,76,30.06,29.83,9,1,0,0.47
2013-2-20,54.4,42.6,33.4,43.0,32.5,27.0,84,68,44,30.14,29.89,16,2,0,0.09
2013-2-21,54.8,46.0,38.5,40.0,32.6,25.0,80,61,42,30.23,30.10,5,1,0,0.00
2013-2-22,55.1,49.8,44.2,43.0,32.2,23.0,68,52,42,30.30,30.22,6,0,0,0.00
2013-2-23,56.8,48.9,42.2,41.0,33.8,23.0,78,57,33,30.27,30.14,9,1,0,0.00
2013-2-24,55.1,49.3,43.5,32.0,21.1,13.0,49,33,26,30.31,30.16,14,2,0,0.00
2013-2-25,59.0,52.8,47.3,40.0,25.2,9.0,54,36,14,30.32,30.17,10,0,0,0.00
2013-2-26,62.3,56.3,48.8,36.0,22.7,11.0,38,28,18,30.22,30.13,12,2,0,0.00
2013-2-27,64.5,58.4,52.4,43.0,28.3,16.0,53,33,20,30.37,30.22,12,1,0,0.00
2013-2-28,66.8,60.4,54.5,47.0,39.9,28.0,58,47,35,30.44,30.36,12,1,0,0.00
2013-3-1,70.2,63.1,55.7,47.0,40.3,27.0,59,44,24,30.43,30.26,2,0,0,0.00
2013-3-2,68.1,61.7,53.0,46.0,37.3,31.0,59,41,28,30.27,30.12,3,0,0,0.00
2013-3-3,62.1,53.9,48.2,50.0,42.5,33.0,82,66,37,30.17,30.07,5,0,0,0.00
2013-3-4,56.3,49.4,40.9,49.0,41.1,36.0,92,73,56,30.18,30.09,5,0,0,0.00
2013-3-5,47.1,41.9,38.3,42.0,39.2,37.0,94,90,79,30.14,30.06,11,1,0,0.17
2013-3-6,46.3,44.2,41.5,45.0,42.5,39.0,96,93,76,30.17,30.07,19,5,0,0.37
2013-3-8,51.6,31.4,40.6,46.0,-2.7,-99.9,90,57,69,30.17,0.00,6,-302,0,0.00
2013-3-9,60.1,48.8,38.8,47.0,37.1,27.0,86,66,38,30.36,30.17,14,1,0,0.00
2013-3-10,59.7,55.1,51.5,48.0,34.2,23.0,71,47,30,30.38,30.28,7,0,0,0.00
2013-3-11,65.1,62.1,55.7,46.0,37.6,28.0,57,42,25,30.26,30.13,5,0,0,0.00
2013-3-12,70.4,64.6,57.8,48.0,38.9,28.0,49,39,26,30.15,30.08,1,0,0,0.00
2013-3-13,75.0,68.6,63.7,50.0,40.7,22.0,52,37,16,30.17,30.10,1,0,0,0.00
2013-3-14,73.8,69.0,63.0,51.0,33.8,25.0,49,28,20,30.15,30.07,0,0,0,0.00
2013-3-15,75.3,68.7,62.7,51.0,38.9,30.0,46,34,25,30.09,30.01,15,1,0,0.00
2013-3-16,75.3,64.8,59.7,49.0,31.9,21.0,48,30,21,30.08,29.99,17,1,0,0.00
2013-3-17,73.0,62.8,56.9,48.0,30.3,16.0,51,30,17,30.10,30.03,22,3,0,0.00
2013-3-18,66.2,59.6,53.1,43.0,29.4,15.0,58,33,17,30.12,30.02,2,0,0,0.00
2013-3-19,66.7,59.7,52.8,46.0,39.8,33.0,71,49,37,30.18,30.07,11,1,0,0.05
2013-3-20,60.2,55.3,51.9,47.0,43.9,38.0,83,66,54,30.17,30.11,2,0,0,0.00
2013-3-21,64.7,58.9,52.3,49.0,30.7,11.0,66,39,15,30.09,30.00,13,2,0,0.00
2013-3-22,69.5,59.5,53.5,33.0,21.1,13.0,32,23,16,30.06,29.97,13,2,0,0.00
2013-3-23,64.2,58.2,52.5,37.0,22.5,11.0,40,26,18,30.11,30.04,5,0,0,0.00
2013-3-24,65.1,60.5,55.8,45.0,33.4,24.0,51,37,25,30.10,29.98,1,0,0,0.00
2013-3-25,66.6,60.9,56.3,44.0,35.5,18.0,52,39,22,30.04,29.96,2,0,0,0.00
2013-3-26,57.7,53.5,49.2,48.0,33.1,15.0,83,51,20,30.02,29.96,3,0,0,0.00
2013-3-27,57.8,52.7,49.6,51.0,46.8,42.0,92,80,68,30.09,29.99,1,0,0,0.00
2013-3-28,62.4,52.4,48.5,54.0,47.7,39.0,95,85,52,30.14,30.07,3,0,0,0.02
2013-3-29,65.3,57.6,53.3,53.0,44.9,37.0,76,63,52,30.15,30.08,4,0,0,0.00
2013-3-30,59.5,52.0,45.4,52.0,46.9,41.0,95,83,60,30.14,30.07,13,1,0,0.71
2013-3-31,56.0,50.6,46.4,52.0,48.5,45.0,96,92,83,30.16,30.10,5,1,0,0.06
2013-4-1,54.8,49.6,46.9,52.0,48.5,46.0,96,96,91,30.22,30.12,5,0,0,0.32
2013-4-2,61.6,54.8,46.3,54.0,48.8,45.0,97,81,62,30.23,30.13,2,0,0,0.00
2013-4-3,67.4,59.8,50.3,53.0,47.2,40.0,77,64,49,30.15,30.07,3,0,0,0.00
2013-4-4,56.4,52.7,47.1,55.0,50.1,41.0,97,91,66,30.17,30.07,2,0,0,0.15
2013-4-5,59.0,52.7,49.0,55.0,49.7,41.0,97,89,71,30.24,30.15,0,0,0,0.00
2013-4-6,60.6,55.6,48.9,55.0,45.3,37.0,85,69,56,30.24,30.17,3,0,0,0.00
2013-4-7,62.2,57.5,48.0,55.0,47.0,40.0,90,68,56,30.19,29.98,12,1,0,0.00
2013-4-8,57.6,47.6,40.7,46.0,38.5,32.0,93,72,49,30.04,29.84,11,2,0,0.01
2013-4-9,68.1,57.3,50.1,43.0,32.2,27.0,51,39,27,30.09,30.02,19,3,0,0.00
2013-4-10,77.2,66.7,61.1,52.0,36.9,27.0,46,34,25,30.19,30.06,14,3,0,0.00
2013-4-11,70.0,63.1,56.5,50.0,41.5,28.0,56,46,22,30.06,29.85,11,2,0,0.00
2013-4-12,70.7,64.6,59.3,50.0,43.6,36.0,57,47,34,29.93,29.85,3,0,0,0.00
2013-4-13,67.2,60.0,52.9,53.0,40.7,24.0,82,51,26,29.91,29.84,3,0,0,0.00
2013-4-14,71.5,57.5,50.2,51.0,39.8,26.0,74,54,27,29.93,29.84,12,1,0,0.00
2013-4-15,52.5,46.1,38.5,43.0,36.9,28.0,91,71,56,30.01,29.90,7,1,0,0.00
2013-4-16,59.0,48.2,36.8,40.0,31.9,26.0,85,55,38,30.18,30.02,13,1,0,0.00
2013-4-17,64.2,54.5,46.7,37.0,28.4,22.0,45,37,27,30.27,30.17,10,1,0,0.00
2013-4-18,59.5,55.1,53.0,27.0,22.3,21.0,31,28,26,30.30,30.26,1,0,0,0.00
2013-4-19,69.5,62.1,67.6,38.0,23.3,-99.9,32,28,30,30.10,0.00,12,-95,0,0.00
2013-4-20,75.3,69.2,63.2,51.0,42.0,32.0,43,38,27,30.08,29.98,9,0,0,0.00
2013-4-21,72.4,68.7,66.8,45.0,40.0,36.0,39,35,31,30.03,29.97,0,0,0,0.00
2013-4-24,52.5,47.3,51.5,49.0,34.6,-99.9,86,78,85,30.00,0.00,3,-90,0,0.00
2013-4-25,57.8,52.9,48.8,50.0,46.8,44.0,88,80,71,30.16,29.99,3,0,0,0.00
2013-4-26,70.4,62.5,51.8,51.0,45.0,36.0,73,55,31,30.25,30.16,5,0,0,0.00
2013-4-27,78.9,72.4,66.1,53.0,40.3,33.0,45,32,21,30.21,30.06,7,0,0,0.00
2013-4-28,80.8,74.3,67.1,46.0,37.4,26.0,33,26,19,30.06,29.89,9,0,0,0.00
2013-4-29,82.0,75.4,72.1,54.0,44.8,34.0,46,34,24,29.90,29.77,6,0,0,0.00
2013-4-30,72.5,59.6,49.7,52.0,44.3,30.0,91,61,25,29.89,29.75,5,0,0,0.00
2013-5-1,72.2,60.7,51.0,54.0,45.6,30.0,80,60,29,30.13,29.89,5,0,0,0.00
2013-5-2,79.6,73.6,66.2,50.0,39.3,27.0,40,29,20,30.19,30.11,3,0,0,0.00
2013-5-3,82.0,75.7,68.9,48.0,35.5,25.0,33,23,18,30.11,29.81,10,1,0,0.00
2013-5-4,74.2,62.4,46.3,51.0,38.5,23.0,94,51,17,29.81,29.68,6,0,0,0.00
2013-5-5,50.1,48.7,46.6,49.0,47.3,45.0,97,95,88,29.90,29.73,17,8,0,0.15
2013-5-6,57.0,52.4,49.2,53.0,50.1,48.0,97,92,82,30.03,29.89,12,3,0,0.20
2013-5-7,62.6,54.4,51.2,54.0,49.4,43.0,92,83,54,30.11,30.01,3,0,0,0.00
2013-5-8,55.4,52.2,49.9,47.0,43.4,40.0,77,72,59,30.16,30.10,1,0,0,0.00
2013-5-11,81.4,61.2,74.6,56.0,18.6,-99.9,46,31,35,30.13,0.00,3,-220,0,0.00
2013-5-12,87.0,80.6,73.8,55.0,43.8,31.0,40,28,17,30.12,30.00,2,0,0,0.00
2013-5-13,83.3,75.0,65.4,53.0,41.9,28.0,52,32,15,30.05,29.95,1,0,0,0.00
2013-5-14,63.8,53.4,47.5,51.0,47.1,37.0,91,80,47,30.08,29.95,4,0,0,0.00
2013-5-15,69.5,63.1,58.4,51.0,39.6,26.0,67,44,25,30.10,30.02,2,0,0,0.00
2013-5-16,70.6,62.1,54.4,53.0,44.9,36.0,68,54,41,30.04,29.98,3,0,0,0.00
2013-5-17,67.5,59.5,53.9,50.0,43.7,34.0,64,57,46,30.09,29.97,3,0,0,0.00
2013-5-18,74.4,62.8,53.7,50.0,38.1,18.0,58,41,22,30.15,30.07,6,0,0,0.00
2013-5-19,83.9,69.6,58.9,50.0,40.0,27.0,51,35,19,30.12,29.97,6,0,0,0.00
2013-5-20,80.7,74.0,68.1,46.0,36.8,30.0,30,26,21,30.01,29.93,12,0,0,0.00
2013-5-21,76.9,68.6,52.3,51.0,34.8,17.0,43,30,13,29.96,29.88,14,1,0,0.00
2013-5-22,65.3,57.1,46.4,42.0,27.8,13.0,49,34,20,29.96,29.86,11,1,0,0.00
2013-5-23,57.7,51.4,43.5,44.0,35.7,28.0,66,56,36,30.04,29.93,5,0,0,0.00
2013-5-24,66.9,59.1,53.2,45.0,36.6,29.0,57,44,35,30.06,29.98,4,0,0,0.00
2013-5-25,61.8,54.9,47.2,47.0,39.2,29.0,70,56,40,30.08,30.00,2,0,0,0.00
2013-5-26,71.3,60.4,52.0,53.0,45.1,37.0,66,58,48,30.14,30.08,4,0,0,0.00
2013-5-27,69.5,61.2,53.8,52.0,44.1,30.0,76,54,34,30.14,30.04,4,0,0,0.00
2013-5-28,73.5,63.8,55.1,57.0,51.0,36.0,88,66,33,30.04,29.92,1,0,0,0.00
2013-5-29,76.3,67.5,62.2,56.0,42.5,19.0,69,43,17,29.94,29.87,8,0,0,0.00
2013-5-30,81.0,70.8,62.9,47.0,25.1,13.0,34,19,11,29.97,29.89,5,0,0,0.00
2013-5-31,87.2,76.4,68.9,46.0,30.6,5.0,27,19,8,29.98,29.90,6,0,0,0.00
2013-6-1,91.4,82.7,74.8,50.0,39.1,30.0,27,21,17,29.93,29.75,11,1,0,0.00
2013-6-2,81.4,64.6,50.7,52.0,44.9,-99.9,89,56,22,29.80,29.70,0,-10,0,0.00
2013-6-3,51.5,49.6,48.2,50.0,47.7,46.0,95,93,90,29.92,29.78,3,0,0,0.01
2013-6-6,66.6,61.8,57.4,54.0,51.3,48.0,75,69,63,29.99,29.95,0,0,0,0.00
2013-6-7,85.2,71.9,57.3,58.0,50.2,45.0,71,48,27,29.95,29.79,1,0,0,0.00
2013-6-8,75.8,65.3,54.5,57.0,52.2,47.0,80,63,43,29.88,29.74,5,0,0,0.00
2013-6-9,61.5,54.3,51.5,54.0,50.6,48.0,90,87,70,29.95,29.86,3,0,0,0.00
2013-6-10,61.8,55.7,51.4,53.0,50.5,48.0,90,83,67,30.04,29.93,4,0,0,0.00
2013-6-11,73.6,62.0,51.3,57.0,51.8,47.0,87,70,48,30.03,29.94,3,0,0,0.00
2013-6-12,71.6,66.4,62.7,56.0,45.4,15.0,67,50,14,30.02,29.93,2,0,0,0.00
2013-6-13,78.2,70.8,63.6,51.0,31.4,14.0,42,24,14,30.07,29.97,13,1,0,0.00
2013-6-14,79.4,71.9,66.8,44.0,32.3,17.0,36,24,13,29.97,29.85,7,0,0,0.00
2013-6-15,69.4,58.1,48.7,50.0,41.2,29.0,86,59,25,30.03,29.84,2,0,0,0.00
2013-6-16,86.2,76.1,68.5,49.0,37.7,30.0,34,25,20,30.08,30.02,6,1,0,0.00
2013-6-17,78.9,72.5,67.3,53.0,38.7,28.0,46,30,21,30.05,29.98,11,0,0,0.00
2013-6-18,69.2,63.1,54.9,51.0,41.1,33.0,56,45,32,30.01,29.94,16,1,0,0.00
2013-6-19,76.7,63.3,54.0,47.0,37.2,27.0,49,39,25,30.05,29.96,20,2,0,0.00
2013-6-20,78.7,68.9,61.3,50.0,35.8,24.0,42,30,21,29.99,29.94,11,1,0,0.00
2013-6-21,81.3,71.3,63.3,49.0,36.3,12.0,36,29,11,29.99,29.90,7,0,0,0.00
2013-6-22,83.3,75.1,69.5,49.0,37.5,13.0,35,26,11,29.93,29.84,11,1,0,0.00
2013-6-23,71.4,64.5,60.4,56.0,50.9,44.0,82,63,37,29.88,29.82,7,0,0,0.00
2013-6-24,64.6,59.7,56.9,59.0,54.7,52.0,85,84,80,29.98,29.85,2,0,0,0.07
2013-6-25,67.5,62.0,55.8,60.0,55.5,51.0,84,79,71,30.07,29.98,2,0,0,0.01
2013-6-26,79.0,71.3,61.3,63.0,59.4,55.0,80,67,51,30.07,30.00,2,0,0,0.00
2013-6-27,89.5,80.9,71.8,61.0,58.2,53.0,63,47,32,30.07,30.00,4,0,0,0.00
2013-6-28,95.2,87.1,80.9,61.0,56.4,42.0,44,36,21,30.01,29.88,16,2,0,0.00
2013-6-29,100.1,90.8,86.0,55.0,46.7,38.0,26,22,18,29.91,29.78,16,3,0,0.00
2013-6-30,100.2,91.6,85.4,56.0,44.6,34.0,26,20,15,29.80,29.72,9,1,0,0.00
2013-7-1,89.5,80.3,70.8,61.0,52.2,42.0,57,40,21,29.89,29.75,3,0,0,0.00
2013-7-2,82.4,77.6,72.2,59.0,52.8,45.0,58,43,31,29.98,29.86,5,0,0,0.00
2013-7-3,87.0,78.5,70.5,59.0,49.3,41.0,54,37,22,29.93,29.80,5,0,0,0.00
2013-7-4,79.7,73.7,65.1,58.0,51.8,44.0,68,47,33,29.82,29.76,2,0,0,0.00
2013-7-5,74.2,65.6,58.1,57.0,53.3,51.0,78,65,47,29.84,29.78,2,0,0,0.00
2013-7-6,60.8,55.0,49.2,52.0,48.0,43.0,81,77,71,29.88,29.81,1,0,0,0.00
2013-7-7,69.2,58.0,48.8,55.0,47.0,34.0,79,68,39,29.92,29.85,1,0,0,0.00
2013-7-8,80.3,70.6,60.8,41.0,27.1,18.0,47,21,13,30.00,29.91,3,0,0,0.00
2013-7-9,91.5,80.1,69.9,56.0,34.9,13.0,41,22,9,30.02,29.95,3,0,0,0.00
2013-7-10,82.7,75.0,69.1,55.0,40.5,27.0,52,30,19,29.98,29.91,2,0,0,0.00
2013-7-11,76.1,68.8,62.3,52.0,38.1,25.0,65,35,20,29.97,29.90,4,0,0,0.00
2013-7-13,79.8,71.6,66.8,54.0,40.9,-99.9,56,35,15,29.99,0.00,1,-17,0,0.00
2013-7-14,80.5,73.9,65.8,50.0,39.6,33.0,44,29,23,30.00,29.91,2,0,0,0.00
2013-7-15,65.1,56.1,47.2,52.0,43.8,32.0,78,66,34,29.95,29.89,3,0,0,0.00
2013-7-16,62.2,55.0,49.0,53.0,46.9,39.0,79,74,51,30.07,29.94,3,0,0,0.00
2013-7-17,79.4,70.6,57.7,55.0,38.0,22.0,57,32,20,30.11,30.04,1,0,0,0.00
2013-7-18,84.6,78.1,71.9,54.0,43.6,37.0,38,30,22,30.04,29.92,1,0,0,0.00
2013-7-19,84.3,78.1,73.5,53.0,39.6,33.0,41,25,20,29.92,29.83,1,0,0,0.00
2013-7-20,77.8,71.7,63.9,54.0,43.3,31.0,63,38,20,29.85,29.80,2,0,0,0.00
2013-7-21,74.9,69.1,60.2,58.0,51.4,38.0,73,55,29,29.93,29.80,6,1,0,0.00
2013-7-22,75.5,68.7,62.5,54.0,49.4,39.0,71,51,30,30.00,29.91,6,0,0,0.00
2013-7-23,74.4,68.5,64.8,59.0,51.4,34.0,69,56,23,30.05,29.98,1,0,0,0.00
2013-7-24,82.9,72.6,65.1,58.0,51.9,44.0,60,49,36,30.01,29.93,0,0,0,0.00
2013-7-25,84.0,73.6,66.1,58.0,54.1,50.0,63,51,39,30.03,29.93,0,0,0,0.00
2013-7-26,77.8,71.1,66.4,58.0,52.6,49.0,61,52,41,30.10,30.01,1,0,0,0.00
2013-7-27,77.5,70.7,60.0,56.0,47.7,41.0,62,45,31,30.05,29.90,1,0,0,0.00
2013-7-28,69.0,62.4,51.9,54.0,47.1,40.0,76,59,37,29.92,29.85,3,0,0,0.00
2013-7-29,63.8,54.9,49.3,52.0,45.4,40.0,76,71,42,30.09,29.91,1,0,0,0.00
2013-7-30,65.4,58.9,50.8,55.0,46.6,39.0,73,65,42,30.17,30.07,2,0,0,0.00
2013-7-31,70.6,62.6,59.0,54.0,46.7,33.0,70,58,25,30.14,30.04,4,0,0,0.00
2013-8-1,77.1,71.8,64.4,56.0,40.4,23.0,51,34,14,30.07,29.95,9,0,0,0.00
2013-8-2,76.9,70.7,63.5,54.0,39.5,19.0,59,35,12,29.98,29.92,5,0,0,0.00
2013-8-3,69.0,59.4,49.7,53.0,42.9,28.0,73,57,26,30.03,29.93,1,0,0,0.00
2013-8-4,67.1,59.8,46.1,52.0,44.8,30.0,74,59,31,30.07,30.01,1,0,0,0.00
2013-8-5,74.6,67.9,62.5,55.0,41.9,33.0,59,39,31,30.04,29.97,1,0,0,0.00
2013-8-6,65.9,58.9,49.9,50.0,43.0,33.0,73,58,32,30.09,29.97,2,0,0,0.00
2013-8-7,63.1,56.4,49.7,52.0,46.5,41.0,73,70,56,30.18,30.08,2,0,0,0.00
2013-8-8,61.1,57.0,51.0,51.0,44.9,36.0,71,65,47,30.09,29.99,1,0,0,0.00
2013-8-9,66.3,60.9,54.2,54.0,47.4,39.0,69,62,46,30.02,29.95,1,0,0,0.00
2013-8-10,70.6,66.2,58.3,57.0,50.6,43.0,69,58,46,30.07,30.00,2,0,0,0.00
2013-8-11,73.3,69.1,63.7,56.0,51.3,46.0,61,54,42,30.03,29.95,0,0,0,0.00
2013-8-12,78.2,73.0,66.9,55.0,48.0,42.0,49,41,32,30.01,29.94,1,0,0,0.00
2013-8-13,84.8,78.2,71.6,51.0,44.0,39.0,35,30,23,29.99,29.91,2,0,0,0.00
2013-8-14,90.9,82.9,76.0,46.0,39.4,30.0,26,21,15,29.95,29.86,7,0,0,0.00
2013-8-15,88.0,81.8,76.3,53.0,41.2,35.0,32,24,20,29.93,29.87,3,0,0,0.00
2013-8-16,86.8,80.4,74.8,58.0,42.5,29.0,44,27,15,29.98,29.91,1,0,0,0.00
2013-8-17,87.6,79.4,72.5,56.0,43.1,30.0,42,28,18,29.96,29.84,11,1,0,0.00
2013-8-18,86.5,79.3,72.3,56.0,47.9,41.0,40,33,25,29.88,29.80,1,0,0,0.00
2013-8-19,86.5,73.0,66.5,55.0,50.2,43.0,56,45,29,29.92,29.82,6,0,0,0.00
2013-8-20,75.0,64.9,51.1,55.0,47.1,40.0,71,54,30,29.93,29.87,3,0,0,0.00
2013-8-21,74.6,59.1,51.9,55.0,46.1,32.0,71,63,32,29.99,29.91,2,0,0,0.00
2013-8-22,64.8,58.8,52.7,52.0,47.7,43.0,69,67,57,30.02,29.94,3,0,0,0.00
2013-8-23,79.2,69.8,55.7,57.0,45.3,34.0,68,43,30,29.96,29.82,2,0,0,0.00
2013-8-24,82.5,75.1,70.4,56.0,47.7,33.0,52,38,24,29.89,29.82,4,0,0,0.00
2013-8-25,73.3,67.4,60.0,59.0,51.4,42.0,67,57,43,29.97,29.87,1,0,0,0.00
2013-8-26,78.1,69.0,58.4,55.0,45.6,33.0,64,45,23,30.01,29.91,1,0,0,0.00
2013-8-27,82.1,73.9,67.6,56.0,47.8,41.0,50,40,30,29.91,29.83,1,0,0,0.00
2013-8-28,81.6,73.6,66.4,56.0,47.2,34.0,51,40,27,29.94,29.83,1,0,0,0.00
2013-8-29,68.8,67.3,65.3,46.0,42.5,37.0,50,41,32,29.96,29.94,0,0,0,0.00
2013-9-6,83.5,72.3,74.2,51.0,38.2,-99.9,40,34,32,29.88,29.84,4,-77,0,0.00
2013-9-7,82.1,75.4,68.4,53.0,48.3,38.0,50,39,30,29.91,29.84,3,0,0,0.00
2013-9-8,83.9,77.1,70.1,49.0,35.3,24.0,37,22,14,29.88,29.79,1,0,0,0.00
2013-9-9,85.2,80.1,75.3,59.0,46.2,36.0,53,31,19,29.81,29.72,0,0,0,0.00
2013-9-10,77.7,61.5,54.5,52.0,46.7,39.0,68,60,25,29.95,29.75,2,0,0,0.00
2013-9-11,62.6,56.8,50.1,51.0,44.9,39.0,67,65,58,30.07,29.95,3,0,0,0.00
2013-9-12,78.6,69.4,60.2,58.0,49.8,43.0,62,51,30,30.01,29.90,2,0,0,0.00
2013-9-13,89.6,80.2,74.6,55.0,43.3,32.0,38,28,17,29.92,29.73,6,0,0,0.00
2013-9-14,87.2,81.0,75.2,48.0,38.9,31.0,28,22,17,29.77,29.68,1,0,0,0.00
2013-9-15,82.9,75.6,69.2,56.0,44.0,35.0,47,33,23,29.82,29.72,1,0,0,0.00
2013-9-16,79.6,72.8,67.8,55.0,47.3,40.0,51,41,34,29.88,29.79,1,0,0,0.00
2013-9-17,74.3,66.6,60.5,51.0,44.0,34.0,55,45,34,29.88,29.82,6,1,0,0.00
2013-9-18,78.9,70.6,64.3,50.0,42.9,33.0,45,37,25,29.90,29.82,6,0,0,0.00
2013-9-19,79.5,73.6,68.7,42.0,36.7,26.0,32,26,18,29.86,29.78,2,0,0,0.00
2013-9-20,73.5,61.7,54.6,53.0,44.5,36.0,65,56,28,29.93,29.77,2,0,0,0.00
2013-9-21,61.0,56.1,50.8,48.0,43.8,40.0,67,64,62,29.96,29.89,5,0,0,0.17
2013-9-22,72.2,59.7,52.0,54.0,45.9,40.0,71,62,32,30.02,29.95,11,1,0,0.05
2013-9-23,78.7,69.9,60.7,50.0,44.2,36.0,47,40,34,30.02,29.93,2,0,0,0.02
2013-9-24,78.2,69.8,57.1,54.0,47.3,38.0,54,45,39,29.96,29.86,15,1,0,0.00
2013-9-25,63.2,56.9,52.7,47.0,39.5,32.0,60,53,45,29.94,29.84,11,2,0,0.00
2013-9-26,73.0,60.8,51.4,42.0,34.8,28.0,60,39,27,30.00,29.83,16,2,0,0.00
2013-9-27,73.2,65.1,59.0,41.0,32.5,27.0,35,30,23,30.10,30.00,5,0,0,0.00
2013-9-28,75.6,68.2,62.2,38.0,30.7,12.0,32,26,11,30.11,30.04,2,0,0,0.00
2013-9-29,80.9,72.9,64.9,48.0,33.5,15.0,38,24,12,30.11,30.04,2,0,0,0.00
2013-9-30,74.5,68.4,63.9,55.0,43.5,33.0,58,42,27,30.06,29.95,3,0,0,0.00
2013-10-1,72.2,66.8,61.3,53.0,48.2,39.0,62,52,35,29.99,29.91,0,0,0,0.00
2013-10-2,71.6,66.5,62.0,48.0,38.3,13.0,52,37,12,30.00,29.91,6,0,0,0.00
2013-10-3,76.8,66.1,59.7,34.0,24.7,7.0,31,22,10,30.00,29.89,11,2,0,0.00
2013-10-4,71.6,66.0,59.0,33.0,27.1,20.0,29,23,19,30.12,29.94,8,0,0,0.00
2013-10-5,79.4,72.5,67.0,31.0,26.2,22.0,21,18,15,30.20,30.12,10,1,0,0.00
2013-10-6,81.2,73.4,69.3,34.0,26.0,19.0,24,17,14,30.13,30.02,4,0,0,0.00
2013-10-7,73.9,67.2,61.4,48.0,30.8,19.0,48,27,15,30.01,29.92,2,0,0,0.00
2013-10-8,61.6,54.7,46.7,48.0,34.5,23.0,68,50,24,29.93,29.82,1,0,0,0.00
2013-10-9,54.8,49.5,46.0,44.0,38.8,35.0,69,67,65,29.86,29.71,3,0,0,0.00
2013-10-10,58.3,50.5,45.8,47.0,39.0,35.0,69,65,55,30.08,29.85,1,0,0,0.00
2013-10-11,65.6,55.6,43.4,43.0,36.4,32.0,68,50,35,30.13,30.04,2,0,0,0.00
2013-10-12,67.2,61.7,57.5,45.0,37.9,29.0,51,42,31,30.04,29.95,1,0,0,0.00
2013-10-13,61.8,57.3,50.0,49.0,42.4,37.0,66,58,42,30.09,29.94,4,0,0,0.00
2013-10-14,72.3,65.3,59.7,41.0,36.4,31.0,42,34,28,30.13,30.02,2,0,0,0.00
2013-10-15,73.4,68.6,64.8,40.0,36.5,32.0,35,31,23,30.04,29.95,2,0,0,0.00
2013-10-16,76.8,69.3,64.5,37.0,32.6,27.0,30,26,21,30.11,30.01,3,0,0,0.00
2013-10-17,73.9,68.8,65.0,38.0,32.7,30.0,29,26,23,30.09,29.99,3,0,0,0.00
2013-10-18,74.8,69.5,64.5,38.0,33.5,28.0,31,27,21,30.07,30.00,1,0,0,0.00
2013-10-19,77.7,71.7,67.2,38.0,32.3,27.0,30,24,20,30.07,30.02,1,0,0,0.00
2013-10-20,77.8,72.6,68.1,38.0,32.3,28.0,26,23,18,30.03,29.92,2,0,0,0.00
2013-10-21,75.5,70.9,67.5,39.0,33.1,27.0,29,25,19,29.98,29.92,1,0,0,0.00
2013-10-22,72.7,69.7,68.3,38.0,30.3,26.0,28,23,19,30.00,29.96,0,0,0,0.00
2013-10-26,70.5,65.2,64.8,41.0,31.9,-99.9,36,31,29,30.05,0.00,0,-37,0,0.00
2013-10-27,68.9,58.5,48.4,48.0,38.0,34.0,66,49,29,30.03,29.83,2,0,0,0.00
2013-10-28,53.6,48.2,45.8,40.0,36.1,34.0,66,63,60,29.95,29.78,7,0,0,0.04
2013-10-29,54.4,49.1,46.1,42.0,37.3,35.0,72,64,61,30.09,29.96,2,0,0,0.02
2013-10-30,58.7,53.7,48.0,46.0,41.7,38.0,69,64,56,30.19,30.08,5,0,0,0.01
2013-10-31,63.7,58.5,52.6,45.0,41.5,38.0,64,54,41,30.19,30.10,4,0,0,0.01
2013-11-1,76.5,65.7,58.4,46.0,34.8,24.0,49,33,19,30.16,30.05,2,0,0,0.00
2013-11-2,72.1,66.6,60.2,46.0,32.2,20.0,56,30,17,30.05,29.91,7,0,0,0.00
2013-11-3,69.2,59.8,52.6,47.0,30.5,11.0,55,35,15,29.98,29.88,6,0,0,0.00
2013-11-4,65.7,56.5,50.6,33.0,24.4,17.0,36,29,23,30.08,29.89,17,3,0,0.00
2013-11-5,63.4,59.3,54.8,38.0,27.1,22.0,41,29,23,30.25,30.08,3,0,0,0.00
2013-11-6,69.9,64.2,58.1,34.0,26.3,19.0,30,24,17,30.26,30.20,1,0,0,0.00
2013-11-7,71.3,67.1,62.4,33.0,24.9,19.0,26,20,17,30.20,30.07,0,0,0,0.00
2013-11-8,72.3,67.4,62.9,32.0,26.6,23.0,25,22,19,30.07,29.96,1,0,0,0.00
2013-11-9,67.5,62.4,50.7,48.0,28.4,14.0,65,29,15,30.07,29.98,4,0,0,0.00
2013-11-10,66.9,57.7,48.3,48.0,32.7,14.0,67,43,16,30.14,30.05,7,0,0,0.00
2013-11-11,67.8,62.0,53.4,45.0,34.2,29.0,56,36,27,30.20,30.10,3,0,0,0.00
2013-11-12,72.2,66.4,57.3,46.0,35.6,31.0,43,32,24,30.28,30.17,6,0,0,0.00
2013-11-13,82.4,70.7,64.4,44.0,35.7,31.0,36,28,19,30.22,30.08,11,1,0,0.00
2013-11-14,75.1,68.4,61.6,45.0,35.8,22.0,43,30,18,30.09,29.85,8,0,0,0.00
2013-11-15,61.5,55.6,50.5,44.0,38.8,35.0,66,54,41,29.85,29.73,10,1,0,0.00
2013-11-16,56.0,51.9,47.6,44.0,38.6,35.0,66,61,49,29.98,29.81,2,0,0,0.00
2013-11-17,55.4,51.4,46.2,44.0,39.9,35.0,66,65,63,30.15,29.98,2,0,0,0.00
2013-11-18,56.3,50.2,46.3,44.0,38.9,35.0,66,65,63,30.20,30.13,1,0,0,0.00
2013-11-19,56.4,51.4,45.9,44.0,39.0,35.0,66,63,58,30.18,30.05,0,0,0,0.00
2013-11-20,55.1,48.0,49.8,40.0,25.4,-99.9,60,57,58,30.05,29.92,1,0,0,0.53
2013-11-21,53.9,45.3,45.5,42.0,24.9,-99.9,69,61,56,29.97,29.91,5,0,0,0.01
2013-11-22,57.9,52.4,49.1,43.0,38.5,32.0,65,60,47,30.04,29.96,12,0,0,0.00
2013-11-23,55.5,51.1,47.8,44.0,38.0,31.0,67,62,47,30.16,30.01,6,0,0,0.00
2013-11-24,59.0,53.0,48.5,41.0,37.3,35.0,64,56,46,30.29,30.15,1,0,0,0.00
2013-11-25,60.1,56.8,52.4,42.0,38.5,37.0,58,51,45,30.34,30.26,0,0,0,0.00
2013-11-26,65.6,58.9,55.7,43.0,37.4,33.0,52,45,36,30.27,30.06,1,0,0,0.00
2013-11-27,62.1,56.6,51.2,41.0,36.4,32.0,59,47,40,30.05,29.89,14,2,0,0.00
2013-11-28,60.5,54.1,49.2,43.0,38.3,33.0,64,56,47,30.11,29.88,4,0,0,0.00
2013-11-29,64.2,59.2,53.4,46.0,36.2,33.0,56,43,36,30.25,30.11,1,0,0,0.00
2013-11-30,65.0,61.0,56.7,42.0,34.7,30.0,46,38,30,30.28,30.21,1,0,0,0.05
2013-12-1,70.7,63.6,56.6,40.0,33.8,29.0,37,33,28,30.33,30.21,4,0,0,0.00
2013-12-2,63.9,63.8,63.6,34.0,33.3,33.0,33,32,32,30.23,30.22,3,1,0,0.00
2013-12-3,47.5,41.8,39.5,36.0,27.8,20.0,64,58,45,29.95,29.85,5,0,0,0.00
2013-12-4,47.1,42.0,38.8,28.0,20.1,15.0,52,42,33,30.10,29.95,7,0,0,0.00
2013-12-5,47.3,40.5,36.5,26.0,17.6,9.0,55,40,30,30.22,30.08,4,0,0,0.00
2013-12-6,46.0,40.8,35.5,35.0,28.8,19.0,69,63,45,30.26,30.12,3,0,0,0.23
2013-12-7,47.3,41.0,34.2,33.0,28.8,23.0,69,62,53,30.29,30.02,10,1,0,0.52
2013-12-8,40.1,35.8,32.3,29.0,24.6,20.0,69,64,55,30.33,30.23,3,0,0,0.00
2013-12-9,47.7,41.5,33.9,34.0,21.8,2.0,68,49,15,30.43,30.31,3,0,0,0.00
2013-12-10,56.6,51.3,46.4,31.0,11.5,1.0,40,21,14,30.42,30.20,0,0,0,0.00
2013-12-11,62.5,56.2,52.4,41.0,19.3,10.0,53,24,16,30.23,30.17,1,0,0,0.00
2013-12-12,60.6,54.4,48.9,43.0,21.1,9.0,62,29,15,30.27,30.20,1,0,0,0.00
2013-12-13,60.3,53.7,48.1,36.0,21.4,14.0,47,29,22,30.33,30.22,0,0,0,0.00
2013-12-14,65.0,59.9,52.0,33.0,26.9,18.0,36,29,17,30.37,30.31,1,0,0,0.00
2013-12-15,71.8,66.9,58.5,29.0,19.9,14.0,24,17,11,30.35,30.20,1,0,0,0.00
2013-12-16,76.0,70.7,64.9,33.0,23.6,17.0,25,17,13,30.19,30.09,4,0,0,0.00
2013-12-17,76.1,70.2,63.6,40.0,28.0,21.0,32,21,15,30.15,30.02,1,0,0,0.00
2013-12-18,66.0,53.9,43.6,43.0,31.7,24.0,63,47,21,30.02,29.86,2,0,0,0.00
2013-12-19,51.4,47.5,43.6,38.0,28.8,-99.9,65,54,38,29.96,29.80,5,0,0,0.00
2013-12-20,48.5,45.6,43.6,27.0,19.4,15.0,44,35,29,30.01,29.94,8,1,0,0.00
2014-1-2,65.0,23.5,62.5,28.0,-53.3,-99.9,26,9,22,30.14,0.00,0,-632,0,0.00